Regional Weather Roundup
Issued by NWS

Home | Current Version | Previous Version | Graphics & Text | Print | Product List | Glossary On
Versions: 1 2 3 4 5 6 7 8 9 10 11 12 13 14 15 16 17 18 19 20 21 22 23 24 25 26 27 28 29 30 31 32 33 34 35 36 37 38 39 40 41 42 43 44 45 46 47 48 49 50
000
ASUS43 KFSD 030710
RWRSD

WEATHER ROUNDUP FOR SOUTH DAKOTA
NATIONAL WEATHER SERVICE SIOUX FALLS SD
200 AM CDT THU SEP 03 2015

NOTE: "FAIR" INDICATES FEW OR NO CLOUDS BELOW 12,000 FEET WITH NO
SIGNIFICANT WEATHER AND/OR OBSTRUCTIONS TO VISIBILITY.


SDZ001>005-009-010-012>017-030800-
NORTHWEST AND NORTH CENTRAL SOUTH DAKOTA

CITY           SKY/WX    TMP DP  RH WIND       PRES   REMARKS
BUFFALO          N/A     70  55  59 S3        29.68F
FAITH            N/A     69  56  62 SE14      29.73F
MOBRIDGE       CLEAR     74  72  93 SE8       29.69S
$$

SDZ012>016-024>037-041>051-057-063-072>074-030800-
SOUTHWEST AND SOUTH CENTRAL SOUTH DAKOTA

CITY           SKY/WX    TMP DP  RH WIND       PRES   REMARKS
RAPID CTY ARPT CLEAR     67  48  50 SE3       29.79F
PIERRE         CLEAR     78  58  49 S8        29.71S
CUSTER         CLEAR     60  36  40 CALM      30.00S
ELLSWORTH AFB  CLEAR     73  43  34 SW6       29.78F
PHILIP         CLEAR     69  54  58 VRB3      29.75S
PINE RIDGE     CLEAR     76  50  40 S13       29.84F
WINNER         FAIR      79  59  50 S14       29.77S
$$

SDZ004>011-016>023-039-040-030800-
NORTHEAST SOUTH DAKOTA

CITY           SKY/WX    TMP DP  RH WIND       PRES   REMARKS
ABERDEEN       CLEAR     74  71  91 SE7       29.75F
WATERTOWN      CLEAR     73  70  90 SE12      29.82F
BROOKINGS      CLEAR     72  68  88 SE10      29.86S
SISSETON         N/A     73  72  96 S9        29.81S
$$

SDZ017-020-022-023-036>040-048>070-030800-
SOUTHEAST SOUTH DAKOTA

CITY           SKY/WX    TMP DP  RH WIND       PRES   REMARKS
SIOUX FALLS    CLEAR     72  70  93 SE6       29.83F
HURON          CLEAR     73  70  90 SE10      29.76S
CHAMBERLAIN    CLEAR     71  65  83 SE7       29.76S
MITCHELL       CLEAR     72  70  93 SE9       29.78F
YANKTON        CLEAR     72  70  94 E3        29.80S
$$

ABBREVIATIONS USED IN REMARKS
   TC - TEMPERATURE IN CELSIUS
  WCI - WIND CHILL INDEX
   HX - HEAT INDEX
  VSB - VISIBILITY




USA.gov is the U.S. government's official web portal to all federal, state and local government web resources and services.